Location: Doussal
(55.6167°N, 116.8333°W)
Time: 15:55:38
(UTC+00:00)

BlueWalker 3 - Visible Passes

Search period start: 05 June 2023 00:00
Search period end: 15 June 2023 00:00
Orbit: 494 x 513 km, 53.2° (Epoch: 05 June)

Date Brightness Start Highest point End Pass type
(mag) Time Alt. Az. Time Alt. Az. Time Alt. Az.
05 Jun 2.2 06:34:36 10° W 06:38:22 49° SSW 06:42:08 10° ESE visible
05 Jun 3.3 08:13:25 10° W 08:16:20 20° SW 08:17:27 18° SSW visible
06 Jun 2.2 06:14:12 10° W 06:17:57 48° SSW 06:21:42 10° ESE visible
06 Jun 3.4 07:53:01 10° W 07:55:54 20° SW 07:56:57 18° SSW visible
07 Jun 2.2 05:53:47 10° W 05:57:31 48° SSW 06:01:16 10° ESE visible
07 Jun 3.4 07:32:37 10° W 07:35:28 20° SW 07:36:36 17° SSW visible
08 Jun 2.3 05:33:21 10° W 05:37:05 47° SSW 05:40:49 10° ESE visible
08 Jun 3.5 07:12:12 10° W 07:15:01 19° SW 07:16:22 16° S visible
09 Jun 3.6 06:51:47 10° W 06:54:34 19° SW 06:56:12 15° S visible
10 Jun 3.6 06:31:21 10° W 06:34:06 19° SW 06:36:05 13° S visible
11 Jun 3.7 06:10:54 10° W 06:13:38 18° SW 06:16:01 11° S visible
12 Jun 3.8 05:50:28 10° W 05:53:07 18° SW 05:55:49 10° S visible
13 Jun 3.8 05:30:00 10° W 05:32:38 18° SW 05:35:16 10° S visible
